Wind_Speed
41 39 36 32 27 25 24 25 26 28 31 32 34 36 37 37 36 36 37 37 38 38 39 39 40 41 42 44 45 46 46 47 47 47 47 48 47 46 46 46 46 47 46 45 44 44 43 42 41 40 39 39 38 38 37 35 33 32 30 29 28 26 24 20 10 7 11 17 17 16 16 17 17 16 15 14 11 8 5 5 5 6 9 10 10
41 41 39 37 34 30 27 26 26 27 28 30 33 35 37 38 38 36 36 37 38 38 39 40 40 41 42 44 46 47 47 48 48 48 48 49 47 46 46 47 48 47 47 47 47 46 44 44 43 42 41 41 40 40 40 38 36 35 33 32 31 29 26 24 17 10 10 14 16 15 14 15 15 13 12 12 9 6 4 4 5 7 9 10 10
39 39 39 39 38 35 32 29 26 26 27 29 31 33 35 37 38 37 37 37 37 38 38 39 40 41 43 44 45 46 47 48 48 49 50 50 50 48 48 50 50 49 49 50 49 48 46 46 45 45 43 42 42 41 40 39 38 37 36 34 32 31 29 26 23 17 13 14 15 14 12 13 13 10 10 10 8 6 5 5 6 8 9 9 9
39 38 37 38 38 37 36 33 29 27 26 28 30 31 33 34 35 36 37 36 36 37 38 39 40 41 43 44 44 46 47 48 49 50 51 51 51 51 51 52 52 52 53 53 52 51 50 49 48 47 46 45 44 43 41 40 40 38 36 35 33 32 30 28 26 22 16 14 13 13 12 12 12 10 10 8 6 5 5 6 8 9 10 10 10
38 37 35 35 36 37 37 36 33 30 28 28 29 30 31 31 32 34 35 35 36 37 38 39 40 41 43 44 45 46 47 48 49 51 51 51 50 50 51 52 54 54 54 54 54 55 54 53 52 50 49 48 46 45 44 42 40 39 37 35 34 32 30 29 27 24 19 15 13 12 12 12 12 11 9 7 6 6 6 7 9 11 11 11 11
36 36 35 33 32 34 36 36 36 35 32 30 29 29 29 29 30 31 32 34 36 37 38 38 40 42 44 44 45 46 47 47 49 51 52 51 50 49 49 51 53 54 54 54 55 56 56 55 53 53 52 52 50 47 46 43 41 40 38 37 35 33 31 30 28 24 21 18 14 12 12 12 12 10 7 5 6 7 9 11 12 12 13 13 13
33 34 34 33 32 33 34 34 35 36 35 33 31 29 28 28 29 30 31 33 35 36 37 38 40 42 44 44 44 45 45 46 48 49 50 51 51 50 49 49 50 51 52 53 53 54 55 54 53 54 55 54 53 50 48 46 43 42 40 39 36 35 33 30 27 24 21 18 15 13 11 10 10 9 6 3 4 6 8 11 12 13 12 11 12
30 31 31 31 32 34 35 34 34 35 35 35 34 32 29 28 28 29 30 32 34 35 37 39 40 41 42 43 43 43 43 45 48 48 48 49 49 49 49 49 49 48 48 49 51 52 54 53 52 54 55 54 53 52 50 48 46 44 41 40 38 36 34 31 28 25 21 18 14 11 8 7 7 7 5 3 4 6 6 7 10 11 9 9 13
28 28 28 28 29 33 35 36 37 38 38 37 37 35 33 30 29 28 29 31 33 35 36 37 39 40 40 41 41 41 43 45 47 48 48 48 47 48 48 48 48 47 45 46 48 50 52 52 52 53 53 53 51 50 49 49 48 47 44 43 41 38 36 32 29 27 22 16 12 10 8 8 8 8 8 8 9 8 7 9 11 11 9 10 14
27 27 27 27 28 30 31 33 36 38 39 38 38 37 36 33 30 29 28 30 32 34 35 36 38 39 38 39 40 41 43 45 46 47 48 49 48 47 46 46 46 45 44 45 46 48 49 50 50 50 50 50 49 48 48 47 47 46 45 45 43 41 38 35 32 30 24 18 14 13 11 10 11 12 11 12 11 10 9 10 11 10 10 11 13
26 26 26 26 28 29 29 30 32 34 35 36 37 37 37 35 32 30 29 29 30 32 34 35 36 37 38 38 40 41 43 44 44 45 48 50 49 47 45 45 44 44 43 43 44 46 47 47 47 46 47 48 47 46 46 46 45 44 42 42 42 41 39 37 36 35 30 23 18 16 14 12 13 13 13 12 12 11 11 11 11 11 10 9 10
27 27 26 26 27 29 30 30 31 31 31 32 33 34 35 35 33 31 29 29 29 30 32 34 35 36 36 37 39 41 42 43 44 45 47 49 50 48 45 44 43 43 43 42 42 43 44 44 43 43 45 46 46 44 43 43 43 42 39 38 39 39 37 35 34 35 34 30 24 20 17 15 14 15 15 14 12 12 12 12 13 12 11 10 11
30 29 28 27 28 30 31 32 32 32 32 32 33 33 33 33 32 31 30 29 28 28 30 32 33 34 35 37 39 40 42 42 43 45 46 48 50 49 46 44 44 44 44 44 43 43 43 43 42 42 43 44 44 44 43 41 40 39 37 36 37 37 35 33 31 31 33 33 30 26 20 17 16 17 16 15 13 13 13 14 13 11 10 11 12
29 29 29 30 30 31 32 33 33 33 33 33 33 33 32 32 32 31 30 28 27 28 29 30 32 33 34 36 38 39 41 42 42 43 45 47 49 50 48 46 45 46 47 47 46 45 46 46 46 45 44 44 45 45 44 42 39 38 37 36 36 36 34 33 30 28 28 29 30 27 21 17 16 16 16 15 14 14 14 14 13 10 10 12 14
26 26 27 30 32 33 34 34 33 32 33 33 33 33 33 33 33 32 30 28 27 28 28 29 30 31 33 35 37 38 39 40 40 42 44 46 47 48 48 46 45 44 45 46 46 46 47 48 49 49 47 47 47 47 46 44 41 39 37 36 37 36 34 34 32 29 27 27 25 22 18 16 15 15 15 15 14 14 15 15 13 12 12 15 17
25 24 25 28 31 34 36 36 34 32 32 33 33 32 32 33 34 33 31 30 29 28 28 29 30 31 32 33 35 37 38 37 39 40 42 43 44 44 45 45 44 42 41 42 44 45 46 47 49 50 49 48 48 47 47 45 42 39 37 35 36 35 32 30 28 27 26 24 21 18 15 15 16 16 15 14 14 15 17 16 16 15 13 12 14
24 24 24 26 28 32 34 35 33 32 32 32 32 32 32 32 33 33 31 31 30 28 29 29 30 31 32 32 33 36 37 36 37 39 40 41 41 41 42 43 42 41 39 40 42 43 44 47 48 49 49 48 47 44 45 46 43 40 38 35 33 32 29 26 24 23 23 22 20 19 16 15 16 16 16 15 14 15 17 17 16 13 9 6 5
25 24 25 26 28 31 32 31 30 31 32 32 32 33 33 32 32 31 31 30 30 29 29 29 30 30 31 32 33 35 37 36 35 37 38 39 40 41 40 39 40 39 37 37 39 41 43 44 47 49 49 48 46 41 40 44 44 41 38 36 34 32 30 29 27 23 21 20 20 19 17 16 16 17 17 17 16 15 16 17 14 11 9 6 4
24 25 27 29 31 32 31 28 28 30 32 33 34 35 35 34 33 32 31 30 30 30 28 28 29 30 30 32 33 34 35 35 34 35 36 37 39 40 39 37 37 35 33 33 35 37 40 41 43 47 48 48 46 41 38 41 43 41 39 38 37 35 34 34 32 27 23 22 21 21 20 19 20 20 20 20 19 19 18 16 13 11 10 8 6
25 26 29 31 33 34 32 29 28 29 31 34 36 36 35 35 35 34 32 31 31 29 28 27 29 30 30 30 32 33 34 34 34 34 34 35 38 40 39 37 35 33 30 31 32 34 37 39 41 44 46 47 45 39 36 38 41 42 41 41 41 39 36 34 34 31 27 25 24 24 24 23 22 23 23 22 21 20 17 14 11 10 9 8 7
27 28 30 32 34 35 33 30 29 31 33 34 35 36 36 36 36 35 33 32 31 29 28 27 28 29 30 29 31 32 33 33 33 33 33 34 37 40 41 39 37 33 30 31 34 36 38 40 40 39 40 42 41 37 35 36 39 42 43 43 42 38 34 34 32 30 28 25 23 24 26 25 23 23 22 21 19 17 14 11 9 8 7 7 7
28 30 33 34 35 34 32 31 32 35 36 35 34 37 39 38 36 35 33 32 31 30 29 26 25 27 28 28 30 31 32 32 32 33 34 34 37 41 43 41 38 35 33 32 34 37 39 42 41 37 35 38 40 37 35 35 36 40 42 40 36 31 31 33 31 27 26 24 22 23 25 24 23 23 21 19 17 15 12 10 8 6 5 6 6
28 31 34 36 36 34 32 33 35 36 37 36 34 37 40 38 35 34 32 31 30 29 29 26 24 25 25 26 28 30 30 31 31 33 35 35 37 40 42 42 40 38 36 34 35 38 41 42 42 37 35 39 41 39 37 35 35 39 40 36 31 28 29 31 31 28 26 24 23 22 23 24 24 23 21 19 16 13 10 7 5 4 4 5 6
29 32 34 35 36 36 35 36 38 37 38 38 36 36 37 35 34 32 30 28 26 26 26 24 22 21 22 24 27 29 29 30 31 33 36 37 37 38 39 40 41 41 38 34 35 40 43 43 42 39 37 40 40 39 38 36 34 37 38 33 30 28 29 32 32 28 25 24 23 21 22 25 25 23 20 17 14 11 7 5 4 3 5 6 6
32 35 36 36 36 37 38 39 39 38 38 37 34 34 34 33 31 30 28 26 25 24 24 22 21 21 21 21 24 26 28 29 30 32 35 36 37 37 36 36 39 41 40 35 33 37 41 42 42 40 38 37 36 36 38 37 33 34 35 33 31 32 32 33 33 28 24 23 22 20 22 24 23 20 17 14 11 9 6 4 4 4 5 7 8
35 37 39 39 38 37 38 40 40 39 38 35 32 32 32 31 30 29 27 26 25 24 23 22 21 21 21 21 23 24 25 27 29 31 32 33 34 35 36 33 34 37 39 36 32 32 36 39 39 38 36 35 35 36 37 37 33 32 34 33 33 34 34 33 32 28 24 22 21 21 22 22 19 17 15 12 9 7 4 3 4 5 6 8 9
36 39 41 42 41 39 38 38 38 38 37 34 32 31 31 30 29 29 27 25 24 23 22 22 20 20 20 22 22 22 23 25 27 28 30 31 31 33 34 33 32 33 35 34 31 30 32 34 34 34 33 33 34 34 33 34 33 33 34 33 33 35 35 34 31 28 24 22 22 22 21 18 17 16 14 11 7 5 3 3 4 5 6 8 10
35 39 42 43 42 41 39 37 37 37 37 36 35 35 35 33 30 29 29 27 25 23 22 22 22 23 22 22 21 20 20 24 27 29 31 32 32 31 31 31 31 32 32 31 29 28 30 31 30 30 31 31 31 31 31 31 31 32 34 34 33 34 34 32 30 27 25 23 22 20 19 18 17 15 12 9 6 4 2 2 3 5 7 8 8
39 40 42 41 41 40 38 37 36 35 35 36 36 37 38 35 33 33 33 32 30 28 27 27 27 27 26 25 23 19 19 24 31 33 33 33 34 33 32 31 33 33 32 32 31 28 29 30 29 29 29 28 27 28 29 28 27 29 33 34 33 33 32 31 29 27 24 21 20 20 19 18 16 13 10 8 6 4 2 1 2 4 6 6 5
40 40 38 36 35 35 35 35 34 33 33 33 34 36 38 37 35 35 36 35 33 32 32 34 34 32 29 30 30 28 27 30 31 31 30 31 33 35 34 33 34 34 33 34 34 31 29 28 28 28 28 26 25 28 30 29 29 29 30 32 34 33 30 29 27 24 21 20 20 20 19 17 15 13 10 8 6 4 1 1 2 4 5 5 5
36 36 34 33 33 33 33 33 33 32 32 31 31 32 34 35 35 35 37 37 36 35 36 38 38 36 33 33 33 32 31 29 28 27 27 29 31 34 34 32 33 35 36 36 33 30 28 27 26 27 27 26 26 28 30 31 30 29 27 27 30 31 30 27 25 23 22 21 21 20 18 17 15 12 9 7 5 3 1 2 3 4 6 7 7
33 34 34 34 34 32 31 32 31 29 29 29 29 27 27 27 26 27 29 30 31 32 34 36 37 37 36 35 33 31 28 27 25 26 27 29 31 33 34 34 34 37 40 39 32 28 27 26 26 27 28 28 28 30 32 31 32 31 28 25 26 29 31 29 26 24 24 23 22 21 19 17 15 12 9 7 4 2 1 3 4 5 7 8 9
35 36 36 34 33 30 29 29 29 27 27 27 25 22 20 18 17 19 23 26 28 29 31 33 34 34 34 35 34 32 30 27 26 26 27 29 31 32 33 35 35 39 42 39 32 28 27 26 26 27 29 29 30 33 34 34 34 35 33 30 29 30 31 29 26 25 25 24 23 22 20 17 15 12 9 7 4 2 1 3 4 6 8 8 9
37 37 36 34 32 30 29 28 28 27 27 25 23 22 22 22 21 22 24 24 24 26 28 30 32 32 32 33 33 33 30 27 26 27 28 29 30 31 33 34 35 40 43 38 31 29 27 26 25 27 28 29 30 32 33 34 35 35 32 30 31 31 30 28 26 27 27 25 23 22 19 17 14 12 10 8 5 3 2 3 5 6 7 8 8
38 37 35 34 33 32 30 30 30 29 29 29 28 28 28 28 28 27 25 21 19 20 21 23 25 28 30 30 30 31 31 28 26 27 28 29 30 31 31 29 30 35 38 35 32 30 29 28 28 29 30 30 31 32 32 31 31 31 30 31 33 32 31 30 29 29 28 26 24 22 19 16 14 12 10 8 5 4 3 4 5 6 8 9 10
35 35 34 34 34 33 32 32 32 31 31 32 32 31 30 29 28 27 27 26 24 21 20 19 21 23 27 29 29 30 30 29 27 26 27 29 30 31 29 25 24 27 29 29 30 30 31 31 32 32 33 32 31 32 31 30 29 29 30 33 34 32 31 31 31 29 27 25 23 21 19 17 15 13 10 8 6 4 4 4 5 6 9 10 11
34 33 33 34 35 35 34 33 33 32 32 32 31 29 27 25 24 24 24 23 23 21 19 19 18 18 20 24 27 28 29 29 28 26 26 28 30 31 29 24 22 23 24 25 27 29 29 31 33 33 33 32 31 30 31 31 31 31 31 32 32 30 31 31 29 27 26 24 22 21 19 17 15 12 10 8 6 5 4 4 5 7 9 10 11
34 33 32 33 32 31 30 29 28 28 28 27 26 25 25 24 25 25 25 24 23 20 17 16 16 14 15 19 23 25 26 26 26 26 26 27 29 30 28 24 22 23 23 25 28 30 29 29 31 32 32 31 30 30 31 33 35 35 33 31 30 29 29 28 26 25 24 22 21 20 18 15 13 11 10 8 6 4 4 4 5 7 9 9 10
31 31 31 31 30 28 26 26 25 24 24 24 24 25 25 25 24 24 23 22 21 19 15 14 14 15 16 18 19 21 22 21 21 22 24 25 26 27 26 24 23 23 24 26 29 30 28 28 30 31 30 30 31 32 34 36 36 35 33 32 30 29 28 27 26 24 23 21 19 18 16 14 13 11 9 7 5 4 4 4 6 8 9 9 11
30 29 29 29 27 26 25 24 23 22 22 23 23 23 23 22 21 21 21 20 18 17 17 16 16 16 17 18 19 20 19 19 19 20 21 22 23 24 23 22 21 23 26 29 31 30 29 30 32 31 30 31 33 35 37 37 36 34 32 32 31 29 28 27 25 23 21 19 18 17 15 14 12 10 8 5 4 4 4 5 7 8 10 11 13
30 28 27 27 26 25 24 23 23 22 22 22 22 22 22 22 22 22 21 19 17 16 16 17 16 17 17 19 20 22 21 19 19 20 21 21 21 20 20 20 22 27 29 30 31 31 31 32 33 32 31 33 35 37 37 37 35 33 32 30 30 28 26 24 22 20 18 17 17 16 15 14 12 10 7 5 3 4 5 6 8 10 12 14 15
29 28 27 26 25 23 22 22 22 22 22 22 22 22 23 23 23 23 21 19 17 15 14 14 15 16 17 18 21 23 23 20 19 19 19 19 18 17 16 18 23 27 30 32 33 35 35 34 34 33 34 35 37 38 37 36 34 32 31 29 28 27 24 22 20 18 17 17 16 16 15 13 11 9 7 5 4 5 7 8 10 12 14 15 17
28 28 29 29 26 23 21 21 21 20 20 20 21 22 23 22 22 22 20 18 18 16 14 13 13 14 15 16 20 23 21 18 17 17 16 16 16 15 15 18 22 26 29 32 35 37 37 36 34 34 35 37 38 38 36 34 32 31 29 28 26 24 22 21 20 19 18 17 16 15 14 13 11 9 7 5 5 6 7 9 11 13 15 17 18
27 26 27 27 26 23 21 21 20 20 21 21 22 22 22 21 20 18 17 17 16 15 13 12 11 12 13 15 17 17 15 14 16 16 16 17 17 17 19 22 25 27 30 33 35 37 37 36 35 34 34 34 34 33 31 30 28 27 27 25 24 23 21 20 20 19 18 17 16 15 14 12 11 9 7 5 6 6 8 10 12 15 17 18 18
25 24 24 24 24 24 23 22 20 19 20 20 19 19 20 20 19 18 17 16 14 13 11 11 11 11 11 10 9 9 11 16 18 18 18 20 20 20 22 25 28 30 32 34 34 34 34 34 35 36 35 34 31 29 28 27 25 23 22 21 20 20 19 18 17 16 15 15 14 14 12 12 10 9 7 5 5 7 9 12 14 16 18 19 18
23 23 22 21 21 22 22 21 20 19 19 18 18 18 18 18 17 16 15 12 10 8 7 7 7 7 7 7 9 12 15 18 19 20 21 21 21 22 23 25 28 30 32 32 32 32 33 34 36 37 36 33 30 28 26 24 22 20 19 17 16 15 15 15 15 15 14 13 12 11 11 10 9 8 6 4 6 8 11 13 15 17 19 19 19
23 22 20 19 19 19 19 18 16 15 14 13 13 12 11 10 8 6 4 4 4 5 6 7 8 9 10 11 13 15 17 18 20 21 22 22 22 23 25 29 30 31 32 33 34 34 34 34 35 34 33 31 29 26 25 23 21 20 18 17 16 15 15 15 15 14 12 11 10 9 9 9 8 6 5 6 8 10 13 15 17 18 19 19 19
23 22 21 20 19 19 18 18 17 15 13 11 9 8 7 7 7 8 8 9 10 10 11 12 12 13 15 15 16 17 18 20 21 22 22 22 23 25 28 32 34 34 35 36 36 35 33 32 31 30 29 28 26 25 23 21 19 18 17 16 15 15 15 14 13 12 11 10 9 8 8 8 7 6 5 8 10 12 15 17 17 18 20 20 19
23 23 21 20 20 20 19 19 19 19 18 16 15 15 15 15 15 15 14 15 15 15 15 16 16 17 17 18 18 19 21 22 23 23 23 24 26 29 32 35 36 37 37 37 35 33 31 30 28 27 26 25 23 22 20 19 17 16 15 14 14 13 12 12 11 10 10 9 8 8 8 8 6 5 7 10 12 14 16 17 17 19 20 19 19
23 23 22 21 21 21 21 20 20 20 20 18 17 16 17 17 17 17 17 18 17 17 17 17 18 18 18 19 19 21 22 23 23 24 27 28 29 33 37 37 37 38 37 36 34 32 30 28 26 25 24 22 21 19 18 16 14 14 12 11 11 11 10 10 10 9 9 8 8 8 8 7 6 7 10 13 15 16 16 16 17 19 19 19 20
22 23 24 23 22 23 24 24 22 21 21 20 19 18 18 18 18 18 18 18 18 17 17 17 18 18 19 19 20 22 24 24 24 25 29 32 33 36 38 38 37 37 36 34 32 30 28 26 25 23 22 20 18 17 15 14 12 11 10 9 9 9 8 8 9 9 8 8 8 7 6 6 8 11 13 15 17 17 16 16 17 19 19 19 21
Wind_Direction
7 5 2 357 344 328 312 296 283 273 266 262 259 257 256 253 250 245 242 239 236 233 232 230 228 226 224 222 221 220 219 218 217 217 216 215 214 214 213 211 210 211 211 210 210 211 210 209 208 208 208 208 208 207 207 207 207 206 206 207 208 210 210 207 193 149 169 187 196 204 210 218 229 237 247 260 266 263 283 330 354 2 1 1 6
5 4 3 2 357 348 336 320 304 288 275 267 261 258 256 255 254 250 245 242 239 236 233 231 229 227 225 223 222 220 220 219 218 216 216 215 213 212 211 210 208 208 209 209 209 209 209 208 208 207 207 208 208 207 206 206 205 204 204 204 206 208 208 207 201 176 164 182 196 208 220 230 236 239 249 262 270 277 311 352 2 360 357 355 358
4 3 3 3 1 358 352 342 327 308 291 279 270 264 259 256 254 251 248 245 241 238 235 232 230 228 226 224 221 220 220 219 218 217 216 215 213 212 211 210 208 207 207 208 208 207 206 207 207 206 206 206 206 207 206 205 204 203 203 203 204 206 207 208 207 197 180 183 201 218 228 234 240 247 258 267 278 298 322 347 354 354 353 351 352
2 2 2 0 0 0 358 353 344 328 311 296 285 276 269 262 256 253 250 247 244 240 237 234 231 228 226 224 222 220 219 219 218 218 217 216 214 213 212 211 209 208 209 209 208 207 206 206 206 205 204 203 204 205 205 204 204 204 203 203 203 204 206 207 208 208 200 194 207 224 232 240 252 263 271 274 284 309 328 338 341 344 345 345 348
359 359 358 357 358 359 358 356 352 342 330 316 303 293 283 273 265 258 252 248 246 243 239 234 231 229 227 225 223 221 220 219 218 218 218 217 216 215 214 213 211 210 210 210 209 208 208 207 206 204 203 201 201 203 203 202 203 204 203 203 202 203 204 205 208 212 212 208 211 225 241 255 263 270 276 284 300 320 331 332 332 337 339 338 344
357 356 355 354 354 355 356 356 354 350 343 332 322 310 299 287 277 267 259 253 248 244 240 236 232 231 230 228 226 224 222 220 219 219 219 218 217 216 216 215 213 212 211 211 211 210 209 208 206 205 203 202 201 201 201 201 201 202 203 202 201 200 199 202 205 209 215 219 219 227 243 256 266 273 276 287 312 327 330 328 330 335 335 333 339
354 353 352 351 350 351 352 352 352 351 349 344 337 327 315 303 291 279 269 260 253 246 242 239 236 234 232 230 228 226 224 222 221 220 219 218 217 216 216 216 215 214 213 212 211 211 210 208 207 206 206 204 203 202 199 198 199 201 202 201 198 196 195 197 200 204 209 215 220 228 237 245 258 267 268 278 302 308 313 318 320 324 325 320 321
351 350 349 348 347 347 347 347 348 349 349 349 347 341 332 319 306 294 281 268 259 252 246 242 240 237 235 232 229 227 225 224 223 221 219 218 217 216 217 216 215 215 214 213 212 211 210 208 208 209 209 207 206 205 202 200 198 198 199 199 196 193 192 192 193 197 201 205 212 220 224 227 234 241 239 232 250 264 267 270 283 294 297 289 289
347 346 346 345 343 344 344 345 345 346 348 350 349 347 342 333 322 307 292 277 267 259 252 247 242 239 236 233 231 228 226 226 224 222 220 218 217 218 218 217 216 215 214 213 212 211 210 209 210 211 210 208 207 207 206 205 202 199 197 196 194 193 191 189 188 189 189 191 199 202 205 211 208 208 212 211 217 232 236 237 251 262 264 268 270
343 343 342 341 340 340 341 342 343 344 345 346 347 346 344 340 332 319 304 289 276 266 257 250 245 241 238 235 232 230 228 228 227 225 222 220 218 218 219 219 218 216 215 213 212 212 211 210 210 210 210 208 207 207 206 206 206 206 203 199 196 194 190 186 186 187 183 182 187 189 193 205 204 200 204 206 207 216 226 230 235 242 248 253 258
340 338 337 336 336 337 338 338 339 339 340 341 343 343 343 341 336 327 315 301 286 273 262 254 248 243 240 237 234 232 231 231 229 227 226 223 220 219 218 219 219 218 217 214 212 212 211 210 209 209 208 207 206 206 205 205 205 206 206 205 203 200 196 190 186 185 185 185 186 185 190 199 201 199 200 202 206 213 220 222 226 235 235 235 253
336 334 334 334 334 336 336 335 334 334 335 336 337 339 340 339 336 331 321 309 296 281 267 258 252 247 243 240 237 235 235 234 231 229 227 225 223 221 219 219 218 218 218 217 214 212 210 208 208 208 207 206 204 203 203 204 204 203 204 205 205 206 207 205 199 193 191 189 187 188 191 192 194 197 199 199 203 209 214 219 225 228 226 234 252
334 333 333 333 334 335 334 333 331 331 332 332 333 334 335 336 335 330 323 314 302 286 273 263 257 251 246 242 241 239 238 236 233 231 229 226 224 222 220 219 218 217 217 217 215 213 210 207 206 207 207 205 204 202 200 200 201 202 203 203 203 205 208 211 212 210 204 198 193 191 190 188 191 197 197 196 200 205 211 220 224 220 226 241 249
330 331 331 332 333 333 333 331 329 328 329 330 330 331 331 331 331 329 324 317 304 290 279 269 261 254 249 246 244 243 241 239 236 232 230 227 225 223 221 221 220 219 218 216 214 212 210 208 206 205 204 203 202 200 198 196 195 196 197 199 201 204 205 205 207 211 212 207 201 197 192 188 190 194 196 199 203 208 215 218 217 217 232 248 258
325 326 327 328 330 331 332 330 326 325 326 327 327 327 327 328 328 327 322 315 307 296 285 275 266 259 253 249 247 246 244 241 238 235 231 228 225 223 222 222 222 221 219 217 214 212 211 209 207 205 202 201 201 200 197 195 191 190 192 194 197 200 201 202 202 201 203 204 203 198 190 188 193 195 199 204 207 214 221 223 227 237 251 264 277
320 322 323 325 326 328 329 327 323 322 323 324 323 323 323 323 324 324 320 315 309 300 289 280 272 265 259 253 249 249 248 245 240 237 232 228 224 222 221 222 222 222 221 218 215 213 211 210 208 206 204 202 201 200 198 195 190 188 188 190 194 196 197 199 199 198 199 199 199 196 188 189 195 197 200 203 207 218 226 232 242 251 257 273 287
315 317 318 320 321 323 325 322 318 318 320 321 320 319 318 318 318 318 316 311 307 300 292 284 276 269 262 256 252 251 251 248 242 238 233 226 221 220 220 221 222 222 221 218 215 213 212 211 209 207 204 202 199 196 196 194 190 187 186 186 188 192 195 196 195 197 200 199 200 200 195 193 198 203 207 208 211 222 230 235 245 249 248 263 277
311 313 313 315 317 319 320 317 312 312 315 316 315 315 315 312 312 312 309 304 300 297 293 286 279 272 264 258 254 252 251 250 244 240 234 225 219 219 220 220 221 222 220 217 215 213 212 212 210 207 204 201 197 193 192 193 191 187 185 184 186 191 194 193 191 193 197 200 203 202 200 202 206 208 209 208 210 222 234 241 249 247 240 237 225
306 308 309 311 314 315 315 311 306 307 310 312 312 313 311 309 308 307 305 300 296 293 290 284 278 273 267 261 257 253 252 251 245 240 233 223 219 220 220 219 219 219 216 213 212 211 210 210 209 207 205 201 197 192 191 193 192 188 185 184 187 191 194 192 190 189 189 194 198 198 199 204 205 206 210 214 219 231 243 251 252 242 236 233 218
302 303 305 309 311 312 312 307 303 304 306 308 310 309 308 307 306 305 303 300 295 291 286 281 276 273 268 264 258 253 250 249 246 240 231 221 218 219 219 218 217 214 211 207 204 204 205 205 205 205 204 201 196 193 192 194 194 191 189 189 191 194 195 193 191 190 188 190 194 197 200 203 207 213 219 223 230 239 246 247 242 234 229 226 213
300 302 304 307 308 309 309 304 301 303 305 306 307 306 304 304 303 302 301 298 294 288 283 278 273 271 268 263 258 254 249 246 243 240 232 223 219 219 218 217 215 210 205 203 201 199 199 199 199 199 197 196 195 193 194 196 197 196 195 197 198 197 193 190 189 190 190 190 193 198 200 205 214 221 224 228 235 241 239 232 230 229 223 222 219
299 302 304 305 305 305 304 301 300 303 304 305 305 303 303 303 301 299 297 295 291 286 282 276 270 268 266 261 256 253 250 246 241 237 232 226 222 221 219 217 214 208 203 201 201 200 199 198 197 193 190 192 194 194 194 196 198 200 201 200 198 194 189 186 184 184 187 190 192 196 203 211 219 224 228 235 239 235 228 225 224 227 225 225 228
300 301 301 302 302 301 299 299 300 301 302 303 302 299 299 299 298 297 294 291 289 285 282 278 271 268 266 262 257 253 250 245 240 236 232 227 224 224 222 218 213 209 205 203 202 201 199 199 196 191 188 192 195 195 194 194 197 201 202 198 192 187 184 183 181 180 184 189 192 198 208 215 219 224 231 235 232 224 222 226 227 238 248 240 241
301 298 298 298 298 297 298 298 298 299 299 300 299 295 293 294 294 293 290 286 283 280 278 275 269 264 263 262 259 255 249 244 239 234 232 228 226 226 224 218 214 212 210 207 206 204 201 200 198 192 191 195 195 195 195 194 195 198 197 190 183 181 180 182 183 180 180 188 195 201 208 213 217 226 232 228 222 218 219 230 247 266 271 265 265
300 297 296 295 294 295 296 296 296 296 296 296 294 290 289 290 289 288 286 282 277 273 271 268 261 256 255 254 253 250 246 241 237 233 230 227 226 227 225 216 210 212 212 208 207 207 204 203 200 195 194 196 194 194 196 194 191 190 189 184 181 181 182 184 185 181 181 190 198 201 206 213 220 226 225 216 215 220 220 237 264 276 281 286 291
299 297 296 295 294 295 295 295 295 295 294 291 287 283 283 283 282 282 281 277 271 268 266 263 257 252 250 248 246 244 239 235 234 231 227 223 222 225 227 219 207 207 211 209 207 205 203 201 198 194 194 195 193 193 196 194 189 184 184 185 183 182 183 183 183 183 186 191 197 203 211 217 218 216 213 211 215 224 229 247 269 285 302 312 316
296 295 294 295 295 295 294 293 292 293 292 290 286 282 279 277 276 275 274 271 268 265 262 259 255 249 248 247 244 240 235 231 230 228 225 222 218 218 223 220 206 201 205 205 202 198 195 194 195 194 194 193 192 193 194 193 190 185 183 184 185 184 186 187 184 184 188 194 201 210 215 213 208 206 208 211 215 222 237 263 284 306 324 329 325
294 292 292 293 294 293 293 291 290 290 289 287 285 282 280 277 273 268 266 263 263 262 259 256 253 249 247 246 243 238 232 227 227 225 223 221 216 212 214 212 202 196 197 196 192 189 187 188 190 191 192 192 191 190 188 188 188 184 178 177 180 183 186 186 186 188 194 201 206 210 208 203 202 203 204 208 211 212 225 273 309 327 336 336 325
293 290 290 290 291 291 291 290 288 288 287 286 284 280 277 274 271 269 267 262 259 259 259 257 255 252 250 246 240 233 228 228 229 228 224 222 218 211 207 203 197 194 193 189 184 180 179 181 184 186 189 188 182 177 175 174 172 171 169 172 176 178 179 182 187 192 198 203 204 203 202 200 200 200 201 203 202 196 204 293 334 340 340 331 305
291 289 288 289 290 291 291 290 289 288 287 286 285 282 279 274 268 267 267 266 262 258 257 257 256 254 252 248 244 239 238 239 238 232 225 222 220 215 209 202 195 191 188 183 179 176 176 179 183 184 183 179 171 166 166 164 161 161 165 171 177 177 179 186 192 195 198 202 202 201 200 198 196 198 200 198 192 184 189 339 359 347 327 306 285
288 287 288 289 289 291 290 289 289 288 286 283 282 281 281 278 270 264 262 263 263 261 259 257 256 255 252 250 249 246 243 244 242 233 222 219 220 218 213 205 196 187 180 176 176 178 178 179 182 182 178 174 169 166 165 165 164 163 163 169 175 179 184 189 191 192 195 198 198 199 198 196 197 197 193 189 190 181 138 5 349 334 315 301 288
283 284 287 288 288 288 288 287 288 287 285 283 279 274 274 277 276 272 267 264 262 262 260 257 256 255 252 250 249 245 241 237 234 227 219 216 218 218 216 211 199 184 176 174 176 181 183 181 180 179 176 174 172 170 168 169 169 168 168 169 173 181 188 189 188 190 193 194 194 195 195 195 195 192 185 181 179 167 25 347 333 322 312 303 292
280 281 284 286 286 285 284 284 284 281 278 278 277 278 282 286 292 294 291 283 275 270 265 260 257 255 253 250 248 244 239 233 228 221 215 213 215 216 216 215 201 182 175 176 179 182 184 182 180 179 179 177 175 173 174 175 175 177 178 177 176 180 185 186 185 188 191 193 194 194 194 194 190 183 178 174 165 166 291 322 320 313 306 297 289
280 280 281 282 283 282 282 281 281 280 279 281 286 292 294 292 290 290 291 288 282 273 264 258 256 256 254 251 248 244 238 228 223 220 215 213 214 213 214 215 203 186 180 181 181 179 180 180 179 179 180 180 179 178 178 179 179 180 180 179 178 178 178 179 183 186 187 188 191 193 192 191 186 177 172 169 167 181 246 295 300 296 295 290 286
281 280 280 280 280 280 279 278 277 279 280 283 286 287 283 279 276 273 270 270 271 269 261 253 250 252 254 252 247 243 236 226 220 218 215 213 212 210 210 212 203 190 186 185 182 179 177 176 177 179 180 182 183 183 182 181 179 178 177 176 177 176 176 177 182 185 186 187 190 192 190 186 181 175 170 170 175 193 227 269 283 283 289 289 284
284 282 282 281 279 278 276 276 275 275 276 276 276 275 270 267 265 263 261 261 261 261 260 255 248 246 250 250 244 239 233 225 217 214 214 213 210 207 207 209 203 193 188 184 180 178 176 176 177 179 181 183 184 185 184 182 179 178 178 179 178 176 177 180 183 184 186 188 189 189 187 182 177 173 171 175 185 200 227 264 281 286 291 288 280
286 284 283 282 280 278 276 275 274 272 271 271 269 268 267 268 270 271 271 270 267 263 257 254 249 242 241 243 242 238 233 225 215 210 213 214 211 208 210 211 204 195 188 182 177 175 175 177 178 178 179 181 183 183 184 182 180 178 178 179 180 179 180 184 186 186 187 188 187 186 184 179 175 173 174 180 189 202 231 265 279 285 288 283 278
287 284 283 283 282 280 278 276 275 273 271 269 268 269 272 275 276 276 275 273 272 270 260 250 245 237 231 233 235 233 231 224 214 208 209 212 212 211 211 211 205 196 186 179 176 175 175 176 176 176 177 179 179 179 181 181 180 178 176 177 178 180 182 184 187 187 188 187 185 183 180 175 174 177 180 184 193 212 237 260 277 281 279 274 273
289 286 285 285 284 282 280 279 278 276 273 271 269 269 268 266 263 262 263 262 262 264 262 254 246 238 232 231 228 223 220 217 210 203 203 207 210 210 209 208 203 191 179 174 174 175 173 171 171 172 173 176 177 177 178 179 178 177 177 176 176 178 182 184 185 186 186 184 181 179 176 173 175 181 186 190 204 230 247 266 279 276 268 266 271
290 287 286 285 283 280 279 278 276 274 270 268 268 267 266 264 260 259 260 259 253 250 251 250 246 240 235 229 222 215 212 210 206 199 197 203 209 210 209 205 193 179 171 170 172 172 168 165 168 170 171 174 178 178 177 177 176 176 177 177 178 179 182 184 184 183 181 180 178 176 175 177 181 185 191 201 222 247 261 275 277 268 264 270 275
291 287 284 283 280 278 278 276 273 271 270 269 270 270 270 271 272 271 270 267 261 251 245 244 246 244 236 228 222 219 215 211 205 199 197 200 206 209 206 196 181 172 169 168 167 166 164 164 169 171 170 173 177 176 174 174 174 174 176 178 179 180 180 181 181 180 178 178 179 178 179 183 185 188 196 211 235 260 267 268 270 271 275 279 279
293 288 284 280 276 272 271 268 265 266 266 265 266 266 265 265 266 266 268 270 269 263 252 247 247 245 238 232 227 224 220 213 205 200 196 196 200 201 193 178 169 168 168 165 164 165 166 166 170 173 173 173 173 172 172 172 173 175 176 177 178 178 177 175 176 177 178 180 182 182 183 187 190 193 202 219 242 260 269 272 277 282 283 281 280
294 289 286 282 276 268 262 262 263 263 262 261 262 262 262 260 257 256 258 262 264 262 255 249 246 241 236 233 232 230 224 211 197 189 182 178 178 173 161 155 157 161 163 164 167 169 170 170 172 175 176 175 173 171 171 172 173 175 176 176 176 177 176 174 176 179 180 182 184 184 186 191 195 199 207 227 250 266 279 285 286 286 284 282 282
299 294 289 285 281 273 266 263 262 260 259 259 260 261 263 266 265 263 261 258 255 252 247 242 238 231 225 227 232 230 214 186 171 165 160 157 154 148 145 150 155 157 160 164 169 172 172 171 169 169 168 168 168 168 169 170 173 175 175 175 176 177 177 178 180 182 183 184 184 185 189 193 197 201 211 234 260 273 285 287 285 283 282 282 282
307 303 298 293 289 284 279 272 266 261 260 261 261 261 262 264 266 266 264 257 250 243 236 232 229 221 213 214 214 194 163 150 148 148 147 145 141 138 143 151 157 160 164 167 169 170 170 167 163 160 159 160 162 165 167 168 171 173 175 176 176 176 177 180 182 183 186 187 186 188 192 195 199 205 216 242 269 277 281 283 282 281 280 280 279
315 312 308 304 300 297 293 285 275 266 262 260 260 261 262 261 259 258 255 248 237 225 215 208 198 186 172 158 147 140 136 135 134 134 136 137 135 135 142 149 154 158 162 163 162 162 163 161 159 158 157 158 159 161 163 165 166 168 170 172 172 171 174 178 181 185 189 190 191 194 198 200 205 212 223 258 281 282 280 281 282 281 280 280 281
326 323 320 318 317 316 316 313 304 292 281 275 271 271 271 267 260 248 226 189 159 145 134 126 126 126 121 118 121 123 122 122 123 126 130 133 133 137 146 151 151 151 152 152 152 153 153 154 154 154 154 154 156 157 159 162 164 166 166 168 169 172 176 181 185 189 191 193 199 206 209 211 212 217 241 276 285 284 284 285 284 283 282 283 284
339 338 336 335 337 339 339 341 344 347 348 351 359 7 17 35 54 67 80 88 92 97 102 103 104 107 108 110 114 116 117 119 121 123 126 131 136 141 148 150 149 147 146 145 145 146 146 147 149 149 150 151 154 155 157 160 162 163 165 167 171 176 182 185 187 190 193 200 210 218 220 220 219 226 260 282 287 289 289 286 282 284 287 286 285
352 350 347 346 349 354 355 356 1 5 8 14 24 32 39 47 52 57 65 74 78 83 90 95 98 102 106 109 112 116 120 122 122 123 127 132 138 141 143 143 143 142 141 139 138 140 141 142 144 145 147 149 151 152 155 158 160 162 165 169 173 179 186 188 188 193 200 208 218 226 226 226 230 248 275 287 291 290 286 282 282 288 291 288 286
3 2 360 356 356 360 5 9 14 17 19 22 28 33 40 46 50 55 62 68 71 74 81 88 94 100 105 107 112 119 123 122 122 125 128 130 133 136 137 137 136 136 134 134 135 137 138 139 141 143 145 147 149 152 154 157 159 163 166 170 175 182 187 187 189 198 208 215 225 230 224 226 251 276 286 291 291 283 277 280 290 296 294 289 290
9 11 11 10 8 10 13 16 17 20 25 28 31 33 38 44 49 54 60 64 67 71 77 84 91 98 102 105 111 120 123 121 119 123 126 128 130 134 134 134 133 133 133 133 135 136 138 139 141 143 145 147 149 151 155 158 161 165 169 173 177 182 187 190 194 203 211 217 225 227 227 249 276 281 282 284 283 276 275 287 300 302 297 293 293
Height
734 733 733 732 731 731 730 729 729 730 730 731 732 732 732 730 729 728 727 727 727 728 730 731 732 733 734 735 737 739 740 742 744 747 749 750 752 754 755 758 760 762 765 768 769 771 773 775 777 780 783 785 787 790 792 794 796 798 799 801 803 805 807 810 812 815 819 821 821 822 823 823 824 824 824 824 825 824 824 822 821 819 818 816 815
736 734 733 732 731 730 729 728 727 728 728 729 729 729 729 729 728 727 725 725 725 725 726 728 729 730 730 730 731 733 736 737 739 741 743 745 747 749 750 752 754 757 759 761 762 765 767 770 772 775 778 781 783 785 787 789 791 792 794 796 798 801 803 806 808 812 815 818 819 820 820 820 820 821 821 821 821 820 820 819 817 816 815 814 813
738 736 734 733 732 731 729 727 727 726 726 726 726 726 726 726 725 724 723 723 723 723 724 725 726 726 726 726 727 728 730 733 735 736 737 739 741 742 743 745 747 749 751 753 755 759 761 764 766 769 773 776 778 781 783 785 786 788 789 791 794 797 799 802 804 807 810 813 815 815 816 816 816 817 817 817 816 816 815 814 813 813 812 811 810
740 738 736 735 733 731 730 728 726 725 725 724 723 723 722 722 721 720 720 720 719 720 721 722 723 723 723 723 724 725 725 727 730 731 733 735 736 737 737 738 740 741 743 745 748 751 754 756 759 763 767 770 773 776 778 780 782 784 786 788 790 793 796 799 801 803 805 808 809 810 810 811 812 813 813 813 813 812 811 811 810 810 810 809 808
742 740 738 737 735 733 731 728 726 725 723 722 721 720 719 718 717 716 716 716 716 716 717 718 719 719 719 719 720 721 721 722 723 725 727 730 733 734 734 734 734 735 737 739 741 744 746 748 752 756 760 763 766 769 771 774 778 780 782 784 786 789 792 795 798 800 801 803 804 805 806 807 808 808 809 809 809 809 808 808 807 807 806 805 805
745 742 740 739 737 735 732 729 727 724 722 720 718 717 715 714 714 713 712 712 712 712 713 714 714 714 714 715 716 717 718 719 719 719 721 724 727 730 731 731 731 732 733 734 736 737 739 743 746 749 752 755 758 761 765 768 772 776 778 780 783 785 788 792 794 796 798 799 800 801 802 803 804 805 806 806 806 805 805 805 804 804 803 803 802
746 744 742 740 738 735 733 731 728 725 722 719 716 714 712 711 710 709 709 708 708 709 710 710 710 710 711 711 712 713 715 716 716 716 717 719 721 724 726 727 728 728 729 730 731 733 736 739 742 743 745 748 751 754 758 762 767 770 773 776 779 781 784 787 790 793 794 796 797 798 799 800 801 802 803 803 803 804 804 805 804 804 804 804 802
747 746 744 741 739 736 733 731 728 725 722 718 715 712 709 708 707 706 706 705 705 706 706 706 706 706 707 707 708 710 711 710 711 712 713 715 717 719 720 722 723 724 725 726 727 728 731 734 737 738 741 744 746 748 751 755 760 765 768 772 774 777 779 782 786 789 791 793 794 796 797 799 799 800 801 802 802 804 805 807 807 807 807 807 805
748 746 744 742 740 737 734 731 727 724 721 717 714 711 708 706 704 703 703 702 702 703 703 703 703 702 703 704 705 706 705 704 705 706 708 711 713 715 717 718 718 719 720 721 722 724 726 729 731 734 738 741 743 745 748 750 753 756 761 765 769 772 775 777 780 784 787 790 792 794 795 796 797 798 799 800 802 804 806 808 809 809 809 808 806
747 746 744 742 740 737 734 732 728 724 720 717 714 710 707 705 702 701 700 699 699 699 699 699 699 699 699 700 700 700 699 698 700 702 704 706 708 711 713 715 716 716 716 717 718 719 721 724 727 730 734 738 740 742 745 748 750 751 753 756 760 764 768 772 775 779 783 786 788 790 791 792 793 795 797 799 802 804 806 808 808 808 809 808 805
746 745 743 741 739 737 734 731 728 725 722 719 715 711 708 704 702 699 698 696 696 696 696 695 695 695 696 695 695 694 693 693 696 699 701 703 705 707 708 710 712 714 714 713 714 715 717 720 723 726 729 733 736 739 743 745 748 750 752 754 755 758 760 764 769 774 778 781 784 785 786 788 789 792 794 797 800 802 804 805 806 806 806 805 802
745 743 742 740 738 735 732 729 727 724 722 719 716 712 708 704 701 698 696 695 694 693 692 692 691 692 692 691 691 690 689 690 692 694 696 698 701 703 705 706 707 709 710 711 711 713 715 717 720 722 725 728 732 736 740 743 746 748 751 753 755 756 757 759 762 767 771 775 778 780 781 783 786 789 791 794 797 799 801 802 803 803 802 800 798
743 741 739 738 735 733 730 726 723 721 719 717 714 710 707 703 700 698 695 693 692 691 690 689 688 688 688 687 687 686 685 686 687 689 691 694 697 699 701 702 702 702 704 705 707 708 711 714 716 719 722 725 729 732 735 739 743 746 749 751 753 755 757 758 760 762 765 768 771 773 775 779 782 785 788 790 793 795 797 798 798 798 797 796 794
742 740 737 735 732 730 727 724 721 718 715 713 711 708 705 702 699 697 694 692 690 688 687 685 684 684 684 683 683 682 681 681 683 685 686 689 692 695 697 699 698 696 696 697 699 701 703 706 709 713 716 720 723 727 730 735 738 741 744 747 749 752 755 757 758 760 762 764 766 769 772 775 779 782 784 787 788 790 791 792 793 793 792 791 788
741 738 735 732 730 727 724 722 719 716 713 711 709 706 703 700 697 694 692 690 688 685 684 682 680 679 679 679 679 678 677 678 679 681 682 685 688 691 694 695 694 693 692 692 692 694 696 699 703 706 710 713 717 721 725 729 733 736 739 742 745 749 751 753 754 756 758 761 764 766 769 772 775 779 781 783 784 785 786 787 788 788 788 785 783
738 736 733 730 728 725 723 720 716 714 712 709 707 704 701 698 695 692 689 686 684 682 680 678 676 675 674 675 675 673 673 675 676 677 679 682 685 688 690 691 690 689 688 688 689 690 692 695 698 701 705 708 712 717 721 725 729 732 735 738 742 746 748 750 752 754 756 759 762 764 766 768 772 775 778 780 781 781 782 784 784 784 783 781 778
736 734 731 730 728 725 723 720 716 713 710 708 706 703 700 696 693 691 688 684 681 679 676 674 673 672 671 670 670 669 670 671 672 673 675 678 681 684 685 686 686 685 684 684 685 686 688 690 693 697 701 704 709 713 718 721 724 727 730 735 740 743 746 748 750 753 755 758 760 761 763 766 769 773 775 777 777 778 779 780 780 779 778 776 773
734 731 729 728 726 724 723 720 716 713 709 707 704 701 698 695 692 690 687 683 679 676 673 671 669 668 667 666 666 665 665 667 669 670 672 674 676 679 680 681 681 680 680 681 682 684 685 687 690 693 695 700 705 710 714 717 719 722 725 730 735 739 741 744 747 750 754 756 758 759 761 764 767 770 772 773 774 774 775 775 774 773 772 771 770
731 729 727 725 723 721 720 718 715 711 708 704 701 698 695 692 689 687 684 680 676 672 670 667 665 663 662 662 661 661 661 663 666 667 669 671 673 674 676 677 676 676 676 677 679 681 683 685 688 690 692 696 701 706 711 713 715 717 721 725 729 732 735 738 742 746 750 753 754 756 758 761 763 766 768 769 770 771 772 771 769 768 766 766 766
727 726 723 721 719 717 716 714 712 708 705 702 699 695 692 688 685 682 679 676 672 668 666 663 660 658 658 657 657 657 657 658 661 664 666 667 668 670 671 670 670 672 673 674 676 678 680 682 685 688 690 693 698 703 707 709 711 713 716 719 722 726 730 734 738 742 746 749 750 752 754 757 760 763 764 765 766 768 768 766 764 763 762 761 762
723 721 719 717 715 713 711 710 707 704 702 698 695 691 688 685 681 677 675 672 668 664 661 659 656 654 653 653 653 654 653 653 656 660 662 663 665 665 665 664 666 668 670 671 672 673 675 678 681 685 687 691 696 701 705 707 708 710 712 714 718 722 726 731 735 740 744 746 748 749 751 754 757 760 761 762 763 764 763 762 760 758 757 757 759
718 717 714 712 710 708 707 705 702 699 696 694 691 686 681 679 677 673 670 667 664 660 657 654 652 650 649 649 649 649 650 650 650 653 657 659 661 661 659 659 661 663 665 666 667 669 671 674 677 681 684 688 693 697 701 704 706 708 710 714 718 721 724 728 733 737 741 744 745 747 749 752 754 756 757 759 760 760 759 757 755 753 753 753 755
715 712 709 707 705 703 702 700 697 695 692 689 687 682 676 674 672 669 666 663 659 655 652 649 647 645 643 644 643 644 645 646 646 647 650 654 656 656 655 655 656 658 659 660 662 665 668 670 674 678 681 684 688 693 697 700 702 704 709 714 717 720 723 726 730 733 736 740 742 745 747 749 751 753 754 756 757 756 755 753 751 749 749 751 753
710 707 705 703 700 698 696 694 692 690 687 685 682 678 673 670 667 664 662 659 656 652 648 646 644 642 639 638 638 639 641 642 643 643 645 648 651 652 652 651 651 653 654 656 659 661 664 667 671 675 678 681 685 689 693 696 698 702 707 711 714 717 720 723 727 729 732 736 740 742 744 746 748 750 752 754 754 753 751 749 747 746 746 747 750
705 701 699 697 695 693 692 689 686 685 683 681 678 673 668 665 662 659 657 654 651 648 645 644 642 640 638 636 635 635 636 638 640 640 640 642 645 648 648 648 647 648 650 653 656 658 661 665 669 673 676 679 683 686 689 692 695 700 705 708 710 712 715 719 723 726 729 733 736 739 740 742 745 748 750 751 751 749 747 745 744 743 744 745 747
700 696 693 691 689 689 686 683 680 678 677 675 673 669 665 661 657 654 651 649 646 644 642 641 639 638 635 633 632 632 633 634 635 637 637 638 639 642 644 644 644 645 647 650 653 656 660 664 668 671 674 677 680 683 686 690 694 698 702 705 706 708 711 715 719 722 726 730 733 735 738 740 743 746 747 748 748 745 744 742 741 741 742 742 743
696 692 688 685 683 682 680 677 674 671 669 668 666 663 660 658 654 649 646 643 641 639 638 636 636 634 632 630 628 627 627 629 630 633 634 634 633 634 638 640 642 643 644 648 651 654 658 663 666 669 672 674 677 680 684 689 692 695 698 700 702 705 709 712 716 720 723 727 730 733 736 739 741 743 744 744 744 742 740 739 738 739 739 738 739
692 687 683 680 678 676 674 672 669 665 663 661 659 656 653 651 647 643 640 638 636 634 632 631 630 629 628 626 625 624 622 622 624 625 628 629 629 628 630 634 638 640 641 645 649 652 656 661 664 668 670 671 673 677 681 685 688 690 692 695 699 704 707 710 714 718 721 725 728 731 734 737 738 740 740 740 740 738 737 736 736 736 736 736 737
686 682 678 676 673 670 669 666 663 660 657 654 652 648 645 644 641 635 632 631 630 629 627 626 624 623 623 622 621 620 617 614 615 618 621 624 625 624 623 626 630 634 637 641 646 650 654 657 660 663 665 667 669 672 676 680 684 687 689 692 696 701 705 708 711 715 718 722 725 728 731 734 735 736 737 737 736 735 734 734 734 733 733 735 736
679 675 673 671 669 666 663 660 658 656 652 649 645 640 636 635 634 629 625 623 623 623 622 619 617 618 617 616 614 614 611 609 610 614 617 620 622 622 620 619 622 627 633 637 642 646 649 652 655 657 659 662 665 669 672 676 680 684 687 690 694 698 702 705 709 712 716 720 723 726 729 731 732 733 734 734 733 733 732 731 731 731 732 733 734
674 669 668 667 665 662 659 655 652 650 647 644 641 635 628 625 623 622 619 616 615 616 614 612 611 611 611 609 608 608 608 607 608 610 612 615 618 619 619 617 617 620 626 632 637 641 643 646 649 652 654 658 661 665 669 673 678 681 684 688 691 695 698 702 705 709 713 717 721 724 727 728 729 730 731 731 730 730 729 729 728 729 730 731 731
671 665 663 662 660 658 655 651 648 645 641 638 635 631 625 618 614 613 612 610 609 608 606 605 604 604 604 604 603 603 603 604 604 605 606 610 613 615 616 615 613 614 619 625 631 636 638 641 644 647 650 653 656 660 664 669 674 678 681 685 688 691 694 697 701 705 710 715 719 722 724 725 726 727 727 727 727 726 726 726 726 727 727 728 728
666 661 659 657 655 653 650 646 643 640 636 633 629 625 621 617 612 609 607 605 604 603 601 599 598 597 597 597 597 598 598 599 600 600 602 604 607 610 613 613 611 611 613 617 622 628 633 637 641 644 646 649 652 655 659 664 668 672 676 680 683 686 690 693 697 702 707 711 715 718 720 722 722 723 723 723 723 723 724 724 724 725 725 725 725
661 657 655 652 649 647 644 642 638 635 632 628 625 622 619 617 614 611 607 602 599 597 595 593 592 592 591 591 592 593 594 595 596 596 598 600 602 605 609 611 611 610 609 610 614 619 626 632 637 641 644 647 650 652 655 659 663 668 673 676 679 683 687 690 695 699 704 708 711 714 716 717 718 719 719 719 720 721 721 722 722 722 723 723 722
654 651 649 647 644 640 638 636 634 631 628 625 623 621 618 615 613 610 606 600 595 590 587 586 587 587 587 586 586 587 589 590 592 593 595 596 598 601 605 607 608 607 606 607 609 613 618 625 631 636 641 644 648 651 654 657 661 665 669 673 676 680 684 687 692 696 700 704 707 709 711 713 713 714 715 716 717 718 718 719 720 720 720 720 720
648 645 643 641 638 635 632 631 629 627 624 621 619 616 613 609 607 603 600 595 589 584 581 581 582 582 582 581 581 582 584 586 588 589 591 593 594 597 599 599 600 602 602 604 606 609 614 619 625 631 636 640 645 649 652 656 660 663 667 670 674 678 682 686 690 694 697 700 703 705 706 708 708 710 711 711 713 714 715 716 717 717 717 718 718
643 639 636 634 632 629 626 625 623 621 618 614 612 609 606 603 600 597 594 590 585 580 577 576 577 578 578 577 578 579 580 582 584 586 588 590 591 593 593 594 596 598 600 603 606 608 612 616 621 626 632 637 642 646 650 654 658 662 666 671 674 678 683 686 689 693 695 697 700 701 703 704 704 706 707 708 710 711 711 712 713 713 714 715 715
637 634 631 629 626 623 620 618 616 614 611 608 606 603 600 598 595 593 590 586 582 577 574 573 573 573 573 574 575 576 577 580 581 583 585 586 588 588 589 591 594 595 597 601 605 608 611 615 618 623 629 634 639 644 648 652 657 661 665 670 675 679 683 687 689 692 693 695 697 699 700 701 702 703 705 706 707 708 708 709 709 710 711 712 713
631 628 626 623 621 618 615 613 611 609 606 604 601 599 596 593 591 588 585 582 578 575 572 571 570 569 570 571 572 573 574 575 576 577 580 582 583 584 586 588 590 592 595 600 604 607 611 614 617 621 627 632 637 641 646 651 656 660 664 669 674 678 682 685 687 690 691 693 695 696 697 699 701 702 703 704 705 705 706 706 707 707 708 709 709
626 623 620 618 616 613 610 608 606 604 602 599 596 594 591 588 585 582 580 576 573 571 570 568 567 567 568 569 570 570 571 571 571 573 576 578 580 581 583 584 586 589 593 597 602 605 609 612 616 620 624 629 634 639 645 650 655 659 664 668 672 676 680 683 685 687 689 691 693 694 696 697 699 700 702 703 703 704 704 704 705 705 706 706 706
622 618 615 612 610 608 606 604 601 599 597 595 592 590 587 584 581 579 576 573 569 567 565 565 564 565 566 567 567 568 568 568 569 571 573 576 578 580 581 582 584 587 591 595 600 603 607 610 615 619 623 628 633 638 644 649 654 659 664 668 672 675 679 681 683 685 687 689 691 692 694 696 697 698 700 701 702 702 702 703 703 703 703 703 703
617 614 610 607 605 603 601 598 596 594 593 591 588 586 583 581 579 576 573 570 567 564 563 562 562 563 564 564 565 566 566 566 568 570 572 574 577 579 580 581 583 586 590 594 598 602 605 609 613 618 623 628 632 637 643 648 653 658 663 667 671 674 677 679 682 684 686 688 689 691 693 694 695 697 698 699 700 700 701 701 701 701 701 701 700
613 610 606 603 600 597 595 593 591 589 588 585 583 581 579 576 574 571 569 566 565 563 562 561 561 561 562 562 563 563 563 564 566 568 570 573 575 578 580 582 585 588 592 595 599 602 604 608 613 618 623 628 632 637 643 648 653 658 663 667 670 673 675 678 680 682 684 686 688 689 691 692 693 694 695 696 697 698 698 698 699 699 699 698 697
610 606 602 599 595 593 590 588 586 584 582 580 579 577 574 572 570 567 565 563 562 561 560 560 560 560 560 561 561 562 562 563 565 567 570 573 575 578 581 584 587 591 594 598 600 602 604 608 614 620 626 632 636 640 645 650 654 658 662 666 669 672 674 676 678 680 682 684 685 687 688 689 691 692 693 694 694 695 695 696 696 696 696 695 694
607 603 599 595 592 589 586 583 581 579 577 576 574 572 570 568 566 564 562 560 559 559 559 558 559 559 559 560 561 561 562 563 565 568 571 574 577 580 583 586 590 593 596 599 601 603 606 610 615 622 629 634 639 643 647 651 655 659 663 666 669 671 673 675 677 679 681 682 683 685 686 687 688 689 690 691 692 692 693 694 694 694 694 692 691
606 602 598 594 590 586 583 579 577 575 573 572 570 567 566 564 562 560 559 558 557 558 558 558 558 559 559 560 561 562 563 565 567 570 573 576 579 582 586 589 592 595 598 600 603 605 609 613 618 623 629 635 640 645 649 653 656 660 663 666 669 671 673 675 676 678 680 681 681 682 683 684 685 686 687 688 689 690 691 691 691 691 690 689 688
605 602 598 594 590 586 582 578 575 572 570 568 566 564 562 560 559 558 558 557 557 558 558 558 559 559 560 561 563 564 566 568 569 572 575 578 581 584 587 591 594 598 601 603 606 609 613 618 622 627 632 637 641 646 650 654 657 660 663 665 668 669 671 674 675 677 678 679 679 680 681 682 683 684 685 686 687 687 688 689 688 687 687 686 685
606 602 599 595 591 587 583 579 576 572 570 567 565 563 562 561 560 559 559 559 559 560 560 560 561 562 563 564 566 567 569 570 573 575 578 581 585 588 590 593 597 600 603 607 610 613 617 622 626 631 635 639 643 647 651 654 657 660 662 665 667 668 670 672 674 675 676 676 677 678 679 680 682 683 683 684 685 685 685 685 685 684 684 683 682
607 604 600 596 592 589 585 582 579 576 573 570 568 566 565 564 564 563 563 563 563 563 564 564 565 566 567 568 569 571 572 574 576 579 582 585 588 591 594 597 600 603 606 610 614 618 622 626 630 634 638 641 645 649 652 655 658 660 662 665 666 667 669 670 671 672 673 674 675 677 678 678 679 680 680 681 682 682 682 682 682 681 681 679 678
609 606 602 599 595 592 589 585 582 580 577 575 573 571 570 569 568 568 568 568 568 568 568 569 570 570 571 572 574 575 576 578 581 583 586 588 592 595 598 601 604 607 609 613 617 621 626 630 633 637 640 643 646 650 653 655 658 660 662 663 665 666 667 668 669 670 671 673 674 675 676 676 677 677 678 679 679 679 680 680 679 678 677 675 673
611 608 605 602 599 596 593 589 587 584 582 580 578 577 575 574 574 573 573 572 573 573 574 574 575 575 576 577 579 579 581 583 586 588 590 593 597 600 602 605 607 610 613 617 621 625 629 632 636 639 642 645 648 651 653 655 657 659 660 662 663 664 665 667 668 669 670 671 672 673 673 673 674 675 676 676 677 677 677 677 676 674 673 671 669